Flag for Poland Weather past 2 weeks in Lódz, Poland

Now
38 °F

Fog.


Feels Like: 38 °F
Forecast: 35 / 48 °F
Wind: 1 mph from Southeast

Location: Lodz

Current Time: Feb 27, 2015 at 10:33:38 PM

Latest Report: Feb 27, 2015 at 9:00 PM


Visibility: 2 mi

Pressure: 30.01 "Hg

Humidity: 90%

Dew point: 36 °F

Location of LódzLocation

Historic Weather in Lódz — Graph

°F

Lódz temperature yesterday

Maximum temperature yesterday: 43 °F (at 4:00 PM)
Minimum temperature yesterday: 37 °F (at 8:00 AM)
Average temperature yesterday: 41 °F

Past Weeks' High & Low Weather Summary

 TemperatureHumidityPressure
High47 °F (Feb 21, 4:00 PM)96% (Feb 23, 7:00 AM)30.70 "Hg (Feb 23, 7:00 AM)
Low21 °F (Feb 15, 7:00 AM)34% (Feb 17, 3:00 PM)29.54 "Hg (Feb 23, 8:00 PM)
Average35 °F77%30.11 "Hg
* Reported Feb 12 9:00 PM — Feb 27 9:00 PM, Lódz, Weather by CustomWeather, © 2015

Note: Actual official high and low records may vary slightly from our data, if they occured in-between our weather recording intervals... More about our weather records

Advertising

Lódz weather history for previous 24 hours

 ConditionsComfort  
Time TempWeatherWind HumidityBarometerVisibility
9:00 PM
Fri, Feb 27
38 °FFog.1 mph90%30.01 "Hg2 mi
8:00 PM42 °FFog.2 mph86%29.99 "Hg4 mi
7:00 PM43 °FFog.2 mph83%29.99 "Hg4 mi
6:00 PM43 °FFog.2 mph80%29.98 "Hg4 mi
5:00 PM44 °FFog.2 mph79%29.97 "Hg5 mi
4:00 PM44 °FFog.2 mph77%29.96 "Hg6 mi
3:00 PM44 °FFog.3 mph78%29.96 "Hg6 mi
2:00 PM44 °FFog.2 mph82%29.97 "Hg4 mi
1:00 PM44 °FFog.2 mph79%29.97 "Hg5 mi
12:00 PM44 °FFog.3 mph82%29.98 "Hg4 mi
11:00 AM44 °FFog.3 mph82%29.99 "Hg5 mi
10:00 AM42 °FFog.2 mph88%30.00 "Hg2 mi
9:00 AM41 °FFog.3 mph92%30.01 "Hg2 mi
8:00 AM40 °FFog.2 mph93%30.01 "Hg2 mi
7:00 AM39 °FFog.2 mph95%30.01 "Hg2 mi
6:00 AM39 °FFog.2 mph95%30.01 "Hg2 mi
5:00 AM40 °FFog.2 mph94%30.02 "Hg2 mi
2:00 AM40 °FFog.2 mph93%30.05 "Hg3 mi
1:00 AM40 °FFog.3 mph92%30.07 "Hg3 mi
12:00 AM39 °FFog.3 mph92%30.09 "Hg3 mi
11:00 PM
Thu, Feb 26
40 °FFog.3 mph92%30.10 "Hg3 mi
10:00 PM40 °FFog.3 mph92%30.11 "Hg4 mi
Weather by CustomWeather, © 2015

See weather overviewHow to use our weather pages